sat.trackr.live / text

‹ back to catalog

PTD-R (TYVAK-0127)

NORAD 60523 · 2024-149BH

PAYLOAD ACTIVE UNKNOWN

§ Identity

Operator
Country
US
Launch date
2024-08-16
Launch site
AFWTR
Launch vehicle
Mass (kg)
RCS (m²)

External: N2YO · Heavens-Above · Gunter

§ Orbital elements

Epoch: 2026-06-15T02:37:46.472160Z

Period
87.79 min
Inclination
97.3587°
Eccentricity
0.0014664
Mean motion
16.40205066 rev/d
Perigee alt
155.7 km
Apogee alt
174.9 km
Semi-major
6,543.4 km
B*
5.4306e-4
RAAN
267.1148°
Arg perigee
263.0313°
Mean anomaly
96.9318°
Rev number
10,311

§ Raw data

PTD-R (TYVAK-0127)1 60523U 24149BH  26166.10956565  .08494645  25249-5  54306-3 0  99922 60523  97.3587 267.1148 0014664 263.0313  96.9318 16.40205066103117

JSON: /api/v1/satellites/60523 · /tle

For live sub-satellite position, see the globe view (requires WebGL).

§ Visibility from observer

Set your observer location to see the next 7 days of passes ≥ 10°. The values pass through the URL so the page stays shareable.

No JS? Fill the form by hand. The geolocation button needs JavaScript.

§ Radio — SatNOGS DB

ModeDescriptionDownlinkUplink
FSK Mode U - FSK9k6 401.205 MHz
BPSK S-band telemetry 2.213 GHz

2 transmitters · refreshed weekly from db.satnogs.org